Iowa City, IA

9:46 PM CST on December 11, 2019 (GMT -0600)
Iowa City Municipal

Weather History for KIOW - October, 2019

Change the Weather History Date:

Thursday, October 3, 2019

  Actual Average Record
Temperature  
Mean Temperature 55 °F 57 °F  
Max Temperature 62 °F 69 °F 93 °F (1997)
Min Temperature 48 °F 45 °F 26 °F (1952)
Degree Days  
Heating Degree Days 10 9  
Month to date heating degree days 10 26  
Since 1 July heating degree days 17 138  
Cooling Degree Days 0 1  
Month to date cooling degree days 18 3  
Year to date cooling degree days 1175 905  
Growing Degree Days 6 (Base 50)    
Moisture  
Dew Point 49 °F    
Average Humidity 74    
Maximum Humidity 93    
Minimum Humidity 55    
Precipitation  
Precipitation 0.00 in 0.08 in 0.91 in (1990)
Month to date precipitation 0.89 0.26  
Year to date precipitation 37.86 29.80  
Sea Level Pressure  
Sea Level Pressure 30.14 in    
Wind  
Wind Speed 13 mph (WNW)    
Max Wind Speed 24 mph    
Max Gust Speed 33 mph    
Visibility 9 miles    
Events      
T = Trace of Precipitation, MM = Missing Value Source: NWS Daily Summary

Daily Weather History Graph

Daily Weather History Graph

Search for Another Location

Airport or City:

Astronomy

Oct. 03, 2019 Rise Set
Actual Time 7:04 AM CDT 6:44 PM CDT
Civil Twilight 6:37 AM CDT 7:12 PM CDT
Nautical Twilight 6:05 AM CDT 7:44 PM CDT
Astronomical Twilight 5:32 AM CDT 8:17 PM CDT
Moon 12:40 PM CDT (10/3) 10:20 PM CDT (10/3)
Length of Visible Light 12h 35m
Length of Day
11h 39m
Waxing Crescent, 30% of the Moon is Illuminated
Oct 3
Waxing Crescent
Oct 5
First Quarter
Oct 13
Full
Oct 21
Last Quarter
Oct 27
New

Hourly Weather History & Observations

Time (CDT) Temp. Dew Point Humidity Pressure Visibility Wind Dir Wind Speed Gust Speed Precip Events Conditions
12:52 AM 62.1 °F 60.1 °F 93% 29.93 in 4.0 mi West 3.5 mph - 0.01 in   Overcast
1:18 AM 62.1 °F 60.1 °F 93% 29.95 in 6.0 mi West 3.5 mph - N/A   Overcast
1:28 AM 62.1 °F 60.1 °F 93% 29.95 in 4.0 mi West 3.5 mph - N/A   Overcast
1:50 AM 62.6 °F 60.8 °F 94% 29.96 in 2.5 mi West 6.9 mph - N/A   Overcast
1:52 AM 62.1 °F 60.1 °F 93% 29.96 in 3.0 mi West 10.4 mph 16.1 mph N/A   Overcast
2:07 AM 61.0 °F 57.9 °F 90% 29.98 in 10.0 mi West 12.7 mph 21.9 mph N/A   Overcast
2:15 AM 61.0 °F 57.0 °F 87% 29.98 in 10.0 mi West 13.8 mph - N/A   Overcast
2:22 AM 61.0 °F 57.0 °F 87% 29.98 in 10.0 mi West 12.7 mph - N/A   Overcast
2:34 AM 61.0 °F 57.9 °F 90% 29.98 in 10.0 mi West 12.7 mph - N/A   Overcast
2:52 AM 60.1 °F 57.0 °F 90% 29.98 in 10.0 mi West 17.3 mph 24.2 mph N/A   Overcast
3:08 AM 60.1 °F 55.9 °F 86% 29.99 in 10.0 mi WNW 13.8 mph - N/A   Overcast
3:52 AM 59.0 °F 55.0 °F 87% 30.01 in 10.0 mi West 12.7 mph - N/A   Overcast
4:52 AM 57.9 °F 53.1 °F 84% 30.04 in 10.0 mi West 16.1 mph 24.2 mph N/A   Overcast
5:52 AM 55.9 °F 52.0 °F 87% 30.07 in 10.0 mi WNW 12.7 mph 25.3 mph N/A   Overcast
6:52 AM 54.0 °F 48.9 °F 83% 30.12 in 10.0 mi WNW 20.7 mph 33.4 mph N/A   Overcast
6:59 AM 54.0 °F 48.9 °F 83% 30.12 in 10.0 mi NW 20.7 mph 33.4 mph N/A   Overcast
7:07 AM 54.0 °F 48.0 °F 80% 30.12 in 10.0 mi NW 17.3 mph 33.4 mph N/A   Overcast
7:45 AM 54.0 °F 46.0 °F 75% 30.14 in 10.0 mi WNW 13.8 mph - N/A   Scattered Clouds
7:52 AM 55.0 °F 46.0 °F 72% 30.14 in 10.0 mi WNW 15.0 mph 25.3 mph N/A   Partly Cloudy
8:52 AM 55.0 °F 46.0 °F 72% 30.16 in 10.0 mi WNW 12.7 mph 24.2 mph N/A   Partly Cloudy
9:15 AM 55.0 °F 46.0 °F 72% 30.17 in 10.0 mi WNW 13.8 mph 24.2 mph N/A   Mostly Cloudy
9:52 AM 55.0 °F 46.0 °F 72% 30.19 in 10.0 mi WNW 13.8 mph 21.9 mph N/A   Overcast
10:52 AM 55.9 °F 45.0 °F 67% 30.21 in 10.0 mi NNW 18.4 mph 29.9 mph N/A   Overcast
11:52 AM 57.0 °F 45.0 °F 64% 30.22 in 10.0 mi NW 15.0 mph - N/A   Mostly Cloudy
12:37 PM 59.0 °F 45.0 °F 60% 30.22 in 10.0 mi NW 15.0 mph - N/A   Scattered Clouds
12:52 PM 59.0 °F 46.0 °F 62% 30.22 in 10.0 mi WNW 12.7 mph 21.9 mph N/A   Scattered Clouds
1:01 PM 57.9 °F 45.0 °F 62% 30.22 in 10.0 mi NW 18.4 mph 24.2 mph N/A   Mostly Cloudy
1:09 PM 59.0 °F 44.1 °F 58% 30.23 in 10.0 mi NW 16.1 mph 23.0 mph N/A   Scattered Clouds
1:52 PM 59.0 °F 45.0 °F 60% 30.22 in 10.0 mi NW 12.7 mph 26.5 mph N/A   Partly Cloudy
2:52 PM 60.1 °F 45.0 °F 57% 30.23 in 10.0 mi NW 11.5 mph 21.9 mph N/A   Partly Cloudy
3:52 PM 60.1 °F 44.1 °F 55% 30.24 in 10.0 mi WNW 20.7 mph 27.6 mph N/A   Clear
4:52 PM 57.9 °F 43.0 °F 58% 30.26 in 10.0 mi NW 13.8 mph - N/A   Clear
5:52 PM 57.0 °F 43.0 °F 59% 30.27 in 10.0 mi NNW 15.0 mph 23.0 mph N/A   Clear
6:52 PM 55.9 °F 43.0 °F 62% 30.28 in 10.0 mi NNW 9.2 mph - N/A   Clear
7:52 PM 54.0 °F 43.0 °F 66% 30.30 in 10.0 mi NNW 8.1 mph - N/A   Clear
8:52 PM 53.1 °F 42.1 °F 66% 30.32 in 10.0 mi NNW 5.8 mph - N/A   Clear
9:52 PM 52.0 °F 42.1 °F 69% 30.32 in 10.0 mi North 10.4 mph - N/A   Clear
10:52 PM 50.0 °F 41.0 °F 71% 30.35 in 10.0 mi North 9.2 mph - N/A   Clear
11:52 PM 48.9 °F 41.0 °F 74% 30.36 in 10.0 mi North 6.9 mph - N/A   Clear